| time (UTC) | temp C | wind direction | speed KPH | gust KPH | rain 1hr cm | rain 24hr cm | rain mn cm | humidity % | barometer mb |
| 20260502151920 | 22 | 0.0 | 0.0 | 0.00 | 0.00 | 0.00 | 65 | 1019.7 | |
| 20260502150920 | 22 | 0.0 | 0.0 | 0.00 | 0.00 | 0.00 | 58 | 1019.6 | |
| 20260502122920 | 23 | 0.0 | 0.0 | 0.00 | 0.00 | 0.00 | 57 | 1021.1 | |
| 20260502121920 | 22 | 0.0 | 0.0 | 0.00 | 0.00 | 0.00 | 66 | 1021.4 | |
| 20260502120920 | 22 | 0.0 | 0.0 | 0.00 | 0.00 | 0.00 | 58 | 1021.4 | |
| 20260502115920 | 23 | 0.0 | 0.0 | 0.00 | 0.00 | 0.00 | 61 | 1021.4 | |
| 20260502114920 | 23 | 0.0 | 0.0 | 0.00 | 0.00 | 0.00 | 59 | 1021.3 | |
| 20260502113920 | 23 | 0.0 | 0.0 | 0.00 | 0.00 | 0.00 | 62 | 1021.4 | |
| 20260502112920 | 22 | 0.0 | 0.0 | 0.00 | 0.00 | 0.00 | 67 | 1021.8 | |
| 20260502111920 | 20 | 0.0 | 0.0 | 0.00 | 0.00 | 0.00 | 76 | 1022.4 | |
| 20260502110926 | 21 | 0.0 | 0.0 | 0.00 | 0.00 | 0.00 | 73 | 1022.2 | |
| 20260502105920 | 21 | 0.0 | 0.0 | 0.00 | 0.00 | 0.00 | 73 | 1022.2 | |
| 20260502104920 | 21 | 0.0 | 0.0 | 0.00 | 0.00 | 0.00 | 72 | 1022.1 | |
| 20260502103920 | 21 | 0.0 | 0.0 | 0.00 | 0.00 | 0.00 | 73 | 1022.3 | |
| 20260502102920 | 20 | 0.0 | 0.0 | 0.00 | 0.00 | 0.00 | 77 | 1022.7 | |
| 20260502101925 | 19 | 0.0 | 0.0 | 0.00 | 0.00 | 0.00 | 78 | 1023.0 | |
| 20260502100920 | 20 | 0.0 | 0.0 | 0.00 | 0.00 | 0.00 | 76 | 1023.0 | |
| 20260502090920 | 18 | 0.0 | 0.0 | 0.00 | 0.00 | 0.00 | 92 | 1023.3 | |
| 20260502070926 | 17 | 0.0 | 0.0 | 0.00 | 0.00 | 0.00 | 10 | 1023.6 | |
| 20260502065920 | 17 | 0.0 | 0.0 | 0.00 | 0.00 | 0.00 | 10 | 1023.6 | |
| 20260502064920 | 16 | 0.0 | 0.0 | 0.00 | 0.00 | 0.00 | 10 | 1023.7 | |
| 20260502063920 | 16 | 0.0 | 0.0 | 0.00 | 0.00 | 0.00 | 10 | 1023.7 | |
| 20260502062925 | 16 | 0.0 | 0.0 | 0.00 | 0.00 | 0.00 | 10 | 1023.6 | |
| 20260502061920 | 16 | 0.0 | 0.0 | 0.00 | 0.00 | 0.00 | 10 | 1023.4 | |
| 20260502060931 | 16 | 0.0 | 0.0 | 0.00 | 0.00 | 0.00 | 10 | 1023.4 | |
| 20260502055920 | 16 | 0.0 | 0.0 | 0.00 | 0.00 | 0.00 | 10 | 1023.5 | |
| 20260502054925 | 16 | 0.0 | 0.0 | 0.00 | 0.00 | 0.00 | 10 | 1023.5 | |
| 20260502053920 | 15 | 0.0 | 0.0 | 0.00 | 0.00 | 0.00 | 10 | 1023.5 | |
| 20260502052920 | 15 | 0.0 | 0.0 | 0.00 | 0.00 | 0.00 | 10 | 1023.6 | |
| 20260502051920 | 15 | 0.0 | 0.0 | 0.00 | 0.00 | 0.00 | 10 | 1023.6 | |
| 20260502050920 | 15 | 0.0 | 0.0 | 0.00 | 0.00 | 0.00 | 10 | 1023.6 | |
| 20260502045920 | 15 | 0.0 | 0.0 | 0.00 | 0.00 | 0.00 | 10 | 1023.4 | |
| 20260502044925 | 15 | 0.0 | 0.0 | 0.00 | 0.00 | 0.00 | 10 | 1023.4 | |
| 20260502043920 | 15 | 0.0 | 0.0 | 0.00 | 0.00 | 0.00 | 10 | 1023.4 | |
| 20260502042920 | 15 | 0.0 | 0.0 | 0.00 | 0.00 | 0.00 | 10 | 1023.5 | |
| 20260502041920 | 15 | 0.0 | 0.0 | 0.00 | 0.00 | 0.00 | 10 | 1023.5 | |
| 20260502040920 | 15 | 0.0 | 0.0 | 0.00 | 0.00 | 0.00 | 10 | 1023.3 | |
| 20260502035920 | 15 | 0.0 | 0.0 | 0.00 | 0.00 | 0.00 | 10 | 1023.2 | |
| 20260502034920 | 15 | 0.0 | 0.0 | 0.00 | 0.00 | 0.00 | 10 | 1023.3 | |
| 20260502033926 | 15 | 0.0 | 0.0 | 0.00 | 0.00 | 0.00 | 10 | 1023.4 | |
| 20260502032920 | 14 | 0.0 | 0.0 | 0.00 | 0.00 | 0.00 | 10 | 1023.5 | |
| 20260502031920 | 15 | 0.0 | 0.0 | 0.00 | 0.00 | 0.00 | 10 | 1023.5 | |
| 20260502030920 | 15 | 0.0 | 0.0 | 0.00 | 0.00 | 0.00 | 10 | 1023.4 | |
| 20260502025920 | 15 | 0.0 | 0.0 | 0.00 | 0.00 | 0.00 | 10 | 1023.6 | |
| 20260502024920 | 14 | 0.0 | 0.0 | 0.00 | 0.00 | 0.00 | 10 | 1023.6 | |
| 20260502023931 | 14 | 0.0 | 0.0 | 0.00 | 0.00 | 0.00 | 10 | 1023.7 | |
| 20260502022920 | 15 | 0.0 | 0.0 | 0.00 | 0.00 | 0.00 | 10 | 1023.7 | |
| 20260502021920 | 15 | 0.0 | 0.0 | 0.00 | 0.00 | 0.00 | 10 | 1023.6 | |
| 20260502020920 | 15 | 0.0 | 0.0 | 0.00 | 0.00 | 0.00 | 10 | 1023.7 | |
| 20260502015931 | 15 | 0.0 | 0.0 | 0.00 | 0.00 | 0.00 | 10 | 1023.7 | |
| 20260502014925 | 16 | 0.0 | 0.0 | 0.00 | 0.00 | 0.00 | 10 | 1023.6 | |
| 20260502013920 | 16 | 0.0 | 0.0 | 0.00 | 0.00 | 0.00 | 10 | 1023.8 | |
| 20260502012937 | 16 | 0.0 | 0.0 | 0.00 | 0.00 | 0.00 | 10 | 1023.6 | |
| 20260502011920 | 16 | 0.0 | 0.0 | 0.00 | 0.00 | 0.00 | 10 | 1023.5 | |
| 20260502010920 | 16 | 0.0 | 0.0 | 0.00 | 0.00 | 0.00 | 10 | 1023.7 | |
| 20260502005920 | 16 | 0.0 | 0.0 | 0.00 | 0.00 | 0.00 | 10 | 1023.8 | |
| 20260502004920 | 16 | 0.0 | 0.0 | 0.00 | 0.00 | 0.00 | 10 | 1024.0 | |
| 20260502003920 | 16 | 0.0 | 0.0 | 0.00 | 0.00 | 0.00 | 10 | 1023.9 | |
| 20260502002920 | 16 | 0.0 | 0.0 | 0.00 | 0.00 | 0.00 | 10 | 1024.2 | |
| 20260502001920 | 16 | 0.0 | 0.0 | 0.00 | 0.00 | 0.00 | 10 | 1024.2 | |
| 20260502000920 | 16 | 0.0 | 0.0 | 0.00 | 0.00 | 0.00 | 10 | 1024.4 | |
| 20260501235920 | 16 | 0.0 | 0.0 | 0.00 | 0.00 | 0.00 | 10 | 1024.4 | |
| 20260501234936 | 16 | 0.0 | 0.0 | 0.00 | 0.00 | 0.00 | 10 | 1024.5 | |
| 20260501233920 | 16 | 0.0 | 0.0 | 0.00 | 0.00 | 0.00 | 10 | 1024.6 | |
| 20260501232920 | 16 | 0.0 | 0.0 | 0.00 | 0.00 | 0.00 | 10 | 1024.7 | |
| 20260501231920 | 16 | 0.0 | 0.0 | 0.00 | 0.00 | 0.00 | 10 | 1024.7 | |
| 20260501230920 | 15 | 0.0 | 0.0 | 0.00 | 0.00 | 0.00 | 10 | 1024.8 | |
| 20260501225926 | 16 | 0.0 | 0.0 | 0.00 | 0.00 | 0.00 | 10 | 1024.6 | |
| 20260501224920 | 16 | 0.0 | 0.0 | 0.00 | 0.00 | 0.00 | 10 | 1024.5 | |
| 20260501223920 | 16 | 0.0 | 0.0 | 0.00 | 0.00 | 0.00 | 10 | 1024.4 | |
| 20260501222920 | 16 | 0.0 | 0.0 | 0.00 | 0.00 | 0.00 | 10 | 1024.4 | |
| 20260501221921 | 16 | 0.0 | 0.0 | 0.00 | 0.00 | 0.00 | 10 | 1024.4 | |
| 20260501220920 | 16 | 0.0 | 0.0 | 0.00 | 0.00 | 0.00 | 10 | 1024.3 | |
| 20260501215926 | 15 | 0.0 | 0.0 | 0.00 | 0.00 | 0.00 | 10 | 1024.4 | |
| 20260501214920 | 15 | 0.0 | 0.0 | 0.00 | 0.00 | 0.00 | 10 | 1024.5 | |
| 20260501213920 | 15 | 0.0 | 0.0 | 0.00 | 0.00 | 0.00 | 10 | 1024.6 | |
| 20260501212920 | 15 | 0.0 | 0.0 | 0.00 | 0.00 | 0.00 | 10 | 1024.6 | |
| 20260501211920 | 15 | 0.0 | 0.0 | 0.00 | 0.00 | 0.00 | 10 | 1024.7 | |
| 20260501210920 | 15 | 0.0 | 0.0 | 0.00 | 0.00 | 0.00 | 10 | 1024.7 | |
| 20260501205920 | 15 | 0.0 | 0.0 | 0.00 | 0.00 | 0.00 | 10 | 1024.6 | |
| 20260501204920 | 15 | 0.0 | 0.0 | 0.00 | 0.00 | 0.00 | 10 | 1024.7 | |
| 20260501203926 | 15 | 0.0 | 0.0 | 0.00 | 0.00 | 0.00 | 10 | 1024.5 | |
| 20260501202920 | 15 | 0.0 | 0.0 | 0.00 | 0.00 | 0.00 | 10 | 1024.5 | |
| 20260501201920 | 15 | 0.0 | 0.0 | 0.00 | 0.00 | 0.00 | 10 | 1024.4 | |
| 20260501200920 | 16 | 0.0 | 0.0 | 0.00 | 0.00 | 0.00 | 10 | 1024.4 | |
| 20260501195920 | 16 | 0.0 | 0.0 | 0.00 | 0.00 | 0.00 | 10 | 1024.2 | |
| 20260501194920 | 16 | 0.0 | 0.0 | 0.00 | 0.00 | 0.00 | 10 | 1024.1 | |
| 20260501193920 | 16 | 0.0 | 0.0 | 0.00 | 0.00 | 0.00 | 10 | 1024.0 | |
| 20260501192920 | 16 | 0.0 | 0.0 | 0.00 | 0.00 | 0.00 | 10 | 1023.9 | |
| 20260501191920 | 16 | 0.0 | 0.0 | 0.00 | 0.00 | 0.00 | 10 | 1023.8 | |
| 20260501190925 | 16 | 0.0 | 0.0 | 0.00 | 0.00 | 0.00 | 10 | 1023.5 | |
| 20260501185920 | 17 | 0.0 | 0.0 | 0.00 | 0.00 | 0.00 | 10 | 1023.3 | |
| 20260501184920 | 17 | 0.0 | 0.0 | 0.00 | 0.00 | 0.00 | 97 | 1023.2 | |
| 20260501183926 | 17 | 0.0 | 0.0 | 0.00 | 0.00 | 0.00 | 93 | 1023.0 | |
| 20260501182920 | 18 | 0.0 | 0.0 | 0.00 | 0.00 | 0.00 | 85 | 1022.7 | |
| 20260501181920 | 18 | 0.0 | 0.0 | 0.00 | 0.00 | 0.00 | 76 | 1022.5 | |
| 20260501180926 | 19 | 0.0 | 0.0 | 0.00 | 0.00 | 0.00 | 68 | 1022.1 | |
| 20260501175926 | 21 | 0.0 | 0.0 | 0.00 | 0.00 | 0.00 | 58 | 1021.8 | |
| 20260501174920 | 22 | 0.0 | 0.0 | 0.00 | 0.00 | 0.00 | 51 | 1021.3 | |
| 20260501173920 | 25 | 0.0 | 0.0 | 0.00 | 0.00 | 0.00 | 44 | 1020.8 | |
| 20260501172920 | 25 | 0.0 | 0.0 | 0.00 | 0.00 | 0.00 | 39 | 1020.8 | |
| 20260501171920 | 28 | 0.0 | 0.0 | 0.00 | 0.00 | 0.00 | 35 | 1020.1 | |
| 20260501170920 | 34 | 0.0 | 0.0 | 0.00 | 0.00 | 0.00 | 27 | 1019.2 | |
| 20260501165920 | 34 | 0.0 | 0.0 | 0.00 | 0.00 | 0.00 | 25 | 1019.1 | |
| 20260501164926 | 38 | 0.0 | 0.0 | 0.00 | 0.00 | 0.00 | 20 | 1018.4 | |
| 20260501163936 | 43 | 0.0 | 0.0 | 0.00 | 0.00 | 0.00 | 18 | 1017.6 | |
| 20260501162926 | 37 | 0.0 | 0.0 | 0.00 | 0.00 | 0.00 | 27 | 1018.5 | |
| 20260501161920 | 26 | 0.0 | 0.0 | 0.00 | 0.00 | 0.00 | 42 | 1020.0 | |
| 20260501160920 | 23 | 0.0 | 0.0 | 0.00 | 0.00 | 0.00 | 47 | 1020.5 |